World > North America > United States > Iowa > Fairfax  

Fairfax, IA Hourly Weather Updates

Feedback E-mail the Weather

Quick WX

Fairfax, IA Weather Maps

°F °C°F °C
Fairfax Weather Map
UTC Time: 3/5/2024, 09:45
Your Time:

Fairfax, IA Regional Weather

Expires:202403051000;;433886
ASUS43 KDMX 050906
RWRIA 

WEATHER ROUNDUP FOR IOWA
NATIONAL WEATHER SERVICE DES MOINES IA
300 AM CST TUE MAR 05 2024

NOTE: "FAIR" INDICATES FEW OR NO CLOUDS BELOW 12,000 FEET WITH NO
SIGNIFICANT WEATHER AND/OR OBSTRUCTIONS TO VISIBILITY.

* - THESE STATIONS ARE NOT NWS STATIONS...THUS NOT UNDER NWS
QUALITY CONTROL.  THEY ALSO DO NOT REPORT WEATHER SUCH 
AS PRECIPITATION OR FOG.  


IAZ007>011-017>019-026>030-037>042-050>054-066-051000-
   NORTHEAST IOWA
  
CITY           SKY/WX    TMP DP  RH WIND       PRES   REMARKS
CEDAR RAPIDS   LGT RAIN  40  37  89 N17G24    29.94S WCI  31 TC   4   
CHARLES CITY * PTCLDY    28  28 100 N9        30.04R WCI  20 TC  -2   
CLINTON *      LGT RAIN  42 N/A N/A NE17      29.93R TC   6           
DECORAH *      PTCLDY    32  30  93 N9        30.00R WCI  24 TC   0   
DUBUQUE        CLOUDY    40  37  89 N17       29.94R WCI  31 TC   4   
MONTICELLO *   CLOUDY    41  37  87 N10       29.94F TC   5           
OELWEIN *      CLEAR     34  34 100 N10G16    30.00R WCI  26 TC   1   
WATERLOO       PTCLDY    33  29  85 NW8       30.02R WCI  26 TC   1   
$$
 

SKY/WX - Weather  TMP - Temperature  DP - Dew Point  RH - Humidity
WIND - Wind Direction/Speed PRES - Barometric Pressure VSB - Visibility
WCI - Wind Chill Index E13G22 Wind - East Wind 13 mph/Gusts of 22 mph

Trending Headlines

Trending Entertainment Headlines

Fairfax Radar Loop

Use the map search tool if you want to place a location marker on the radar map...

Fairfax Quick Facts

National Two Day Weather Forecast


E-mail the Fairfax Weather Forecast

Voice your opinion or tell us about page issues...